TimeMDT,TemperatureF,Dew PointF,Humidity,Sea Level PressureIn,VisibilityMPH,Wind Direction,Wind SpeedMPH,Gust SpeedMPH,PrecipitationIn,Events,Conditions,WindDirDegrees,DateUTC
12:15 AM,35.6,26.6,70,30.17,10.0,Calm,Calm,-,N/A,,Clear,0,2013-04-28 06:15:00
12:35 AM,33.8,26.6,75,30.17,10.0,Calm,Calm,-,N/A,,Clear,0,2013-04-28 06:35:00
12:55 AM,33.8,24.8,70,30.17,10.0,Calm,Calm,-,N/A,,Clear,0,2013-04-28 06:55:00
1:15 AM,32.0,26.6,80,30.17,10.0,Calm,Calm,-,N/A,,Clear,0,2013-04-28 07:15:00
1:35 AM,32.0,24.8,75,30.16,10.0,NNW,4.6,-,N/A,,Clear,340,2013-04-28 07:35:00
1:55 AM,32.0,24.8,75,30.15,10.0,Calm,Calm,-,N/A,,Clear,0,2013-04-28 07:55:00
2:15 AM,32.0,26.6,80,30.14,10.0,Calm,Calm,-,N/A,,Clear,0,2013-04-28 08:15:00
2:35 AM,32.0,26.6,80,30.14,10.0,Calm,Calm,-,N/A,,Clear,0,2013-04-28 08:35:00
2:55 AM,30.2,24.8,80,30.14,10.0,WSW,3.5,-,N/A,,Clear,250,2013-04-28 08:55:00
3:15 AM,30.2,26.6,86,30.13,10.0,Calm,Calm,-,N/A,,Clear,0,2013-04-28 09:15:00
3:35 AM,30.2,26.6,86,30.13,10.0,West,5.8,-,N/A,,Clear,270,2013-04-28 09:35:00
3:55 AM,30.2,26.6,86,30.13,10.0,WNW,4.6,-,N/A,,Clear,300,2013-04-28 09:55:00
4:15 AM,32.0,26.6,80,30.13,10.0,Calm,Calm,-,N/A,,Clear,0,2013-04-28 10:15:00
4:35 AM,30.2,26.6,86,30.13,10.0,West,4.6,-,N/A,,Clear,260,2013-04-28 10:35:00
4:55 AM,30.2,26.6,86,30.12,10.0,Calm,Calm,-,N/A,,Clear,0,2013-04-28 10:55:00
5:15 AM,30.2,24.8,80,30.12,10.0,WNW,4.6,-,N/A,,Clear,290,2013-04-28 11:15:00
5:35 AM,28.4,24.8,86,30.13,10.0,WNW,4.6,-,N/A,,Clear,300,2013-04-28 11:35:00
5:55 AM,26.6,26.6,100,30.13,10.0,West,4.6,-,N/A,,Clear,280,2013-04-28 11:55:00
6:15 AM,28.4,24.8,86,30.13,10.0,NW,4.6,-,N/A,,Clear,320,2013-04-28 12:15:00
6:35 AM,28.4,24.8,86,30.13,10.0,NW,8.1,-,N/A,,Clear,320,2013-04-28 12:35:00
7:15 AM,30.2,26.6,86,30.13,10.0,Calm,Calm,-,N/A,,Clear,0,2013-04-28 13:15:00
7:35 AM,33.8,26.6,75,30.13,10.0,Calm,Calm,-,N/A,,Clear,0,2013-04-28 13:35:00
7:55 AM,33.8,26.6,75,30.13,10.0,Calm,Calm,-,N/A,,Clear,0,2013-04-28 13:55:00
8:15 AM,39.2,26.6,61,30.13,10.0,Calm,Calm,-,N/A,,Clear,0,2013-04-28 14:15:00
8:35 AM,42.8,26.6,53,30.13,10.0,East,3.5,-,N/A,,Clear,90,2013-04-28 14:35:00
8:55 AM,44.6,28.4,53,30.12,10.0,ESE,4.6,-,N/A,,Clear,110,2013-04-28 14:55:00
9:15 AM,46.4,28.4,50,30.12,10.0,ESE,4.6,-,N/A,,Clear,120,2013-04-28 15:15:00
9:35 AM,50.0,26.6,40,30.11,10.0,East,4.6,-,N/A,,Clear,90,2013-04-28 15:35:00
9:55 AM,51.8,23.0,33,30.11,10.0,Calm,Calm,-,N/A,,Clear,0,2013-04-28 15:55:00
10:15 AM,51.8,23.0,33,30.10,10.0,Calm,Calm,-,N/A,,Clear,0,2013-04-28 16:15:00
10:35 AM,53.6,23.0,30,30.09,10.0,SSW,5.8,-,N/A,,Clear,200,2013-04-28 16:35:00
10:55 AM,55.4,23.0,29,30.09,10.0,Calm,Calm,-,N/A,,Clear,0,2013-04-28 16:55:00
11:15 AM,55.4,21.2,26,30.08,10.0,WNW,8.1,-,N/A,,Mostly Cloudy,290,2013-04-28 17:15:00
11:35 AM,57.2,17.6,21,30.08,10.0,West,19.6,31.1,N/A,,Overcast,280,2013-04-28 17:35:00
11:55 AM,57.2,17.6,21,30.08,10.0,West,19.6,26.5,N/A,,Mostly Cloudy,260,2013-04-28 17:55:00
12:15 PM,59.0,17.6,20,30.08,10.0,West,19.6,27.6,N/A,,Scattered Clouds,270,2013-04-28 18:15:00
12:35 PM,57.2,17.6,21,30.08,10.0,West,18.4,28.8,N/A,,Scattered Clouds,270,2013-04-28 18:35:00
12:55 PM,57.2,17.6,21,30.07,10.0,WNW,18.4,25.3,N/A,,Overcast,300,2013-04-28 18:55:00
1:15 PM,57.2,17.6,21,30.07,10.0,WNW,25.3,31.1,N/A,,Overcast,300,2013-04-28 19:15:00
1:35 PM,57.2,17.6,21,30.07,10.0,WNW,16.1,28.8,N/A,,Overcast,300,2013-04-28 19:35:00
1:55 PM,55.4,17.6,23,30.06,10.0,WNW,15.0,25.3,N/A,,Overcast,290,2013-04-28 19:55:00
2:15 PM,55.4,19.4,25,30.07,10.0,WNW,15.0,24.2,N/A,,Overcast,300,2013-04-28 20:15:00
2:35 PM,53.6,24.8,33,30.07,10.0,NNW,17.3,-,N/A,,Overcast,340,2013-04-28 20:35:00
2:55 PM,55.4,24.8,31,30.06,10.0,WNW,19.6,26.5,N/A,,Overcast,290,2013-04-28 20:55:00
3:15 PM,53.6,26.6,35,30.06,10.0,West,25.3,31.1,N/A,,Overcast,280,2013-04-28 21:15:00
3:35 PM,53.6,26.6,35,30.06,10.0,West,24.2,31.1,N/A,,Overcast,280,2013-04-28 21:35:00
3:55 PM,53.6,26.6,35,30.06,10.0,West,17.3,26.5,N/A,,Overcast,270,2013-04-28 21:55:00
4:15 PM,53.6,26.6,35,30.06,10.0,West,21.9,26.5,N/A,,Overcast,270,2013-04-28 22:15:00
4:35 PM,53.6,26.6,35,30.06,10.0,West,19.6,25.3,N/A,,Overcast,270,2013-04-28 22:35:00
4:55 PM,53.6,26.6,35,30.06,10.0,West,16.1,20.7,N/A,,Overcast,280,2013-04-28 22:55:00
5:15 PM,53.6,26.6,35,30.06,10.0,WNW,17.3,-,N/A,,Scattered Clouds,290,2013-04-28 23:15:00
5:35 PM,53.6,26.6,35,30.06,10.0,WNW,19.6,25.3,N/A,,Clear,290,2013-04-28 23:35:00
5:55 PM,51.8,28.4,41,30.06,10.0,WNW,21.9,26.5,N/A,,Scattered Clouds,290,2013-04-28 23:55:00
6:15 PM,51.8,28.4,41,30.06,10.0,WNW,17.3,27.6,N/A,,Mostly Cloudy,290,2013-04-29 00:15:00
6:35 PM,51.8,28.4,41,30.06,10.0,West,19.6,24.2,N/A,,Scattered Clouds,280,2013-04-29 00:35:00
6:55 PM,51.8,28.4,41,30.05,10.0,West,13.8,20.7,N/A,,Scattered Clouds,270,2013-04-29 00:55:00
7:15 PM,50.0,28.4,43,30.05,10.0,WNW,13.8,21.9,N/A,,Scattered Clouds,290,2013-04-29 01:15:00
7:35 PM,48.2,28.4,46,30.05,10.0,WNW,12.7,16.1,N/A,,Clear,290,2013-04-29 01:35:00
7:55 PM,46.4,28.4,50,30.04,10.0,NNW,4.6,-,N/A,,Scattered Clouds,330,2013-04-29 01:55:00
8:15 PM,44.6,28.4,53,30.04,10.0,NNW,3.5,-,N/A,,Scattered Clouds,340,2013-04-29 02:15:00
8:35 PM,44.6,28.4,53,30.04,10.0,North,4.6,-,N/A,,Mostly Cloudy,350,2013-04-29 02:35:00
8:55 PM,42.8,28.4,57,30.04,10.0,NNE,5.8,-,N/A,,Overcast,20,2013-04-29 02:55:00
9:15 PM,41.0,28.4,61,30.04,10.0,Calm,Calm,-,N/A,,Scattered Clouds,0,2013-04-29 03:15:00
9:35 PM,37.4,28.4,70,30.03,10.0,Calm,Calm,-,N/A,,Clear,0,2013-04-29 03:35:00
9:55 PM,35.6,26.6,70,30.03,10.0,NNW,3.5,-,N/A,,Clear,330,2013-04-29 03:55:00
10:15 PM,35.6,26.6,70,30.04,10.0,West,3.5,-,N/A,,Clear,260,2013-04-29 04:15:00
10:35 PM,32.0,26.6,80,30.05,10.0,WNW,3.5,-,N/A,,Clear,300,2013-04-29 04:35:00
10:55 PM,32.0,26.6,80,30.04,10.0,Calm,Calm,-,N/A,,Clear,0,2013-04-29 04:55:00
11:15 PM,32.0,26.6,80,30.04,10.0,NW,4.6,-,N/A,,Clear,310,2013-04-29 05:15:00
11:35 PM,32.0,26.6,80,30.03,10.0,West,4.6,-,N/A,,Clear,280,2013-04-29 05:35:00
11:55 PM,30.2,26.6,86,30.03,10.0,NW,5.8,-,N/A,,Scattered Clouds,310,2013-04-29 05:55:00